sat.trackr.live / text

‹ back to catalog

STARLINK-32161

NORAD 60593 · 2024-150L

PAYLOAD ACTIVE UNKNOWN

§ Identity

Operator
Country
US
Launch date
2024-08-20
Launch site
AFETR
Launch vehicle
Mass (kg)
RCS (m²)

Purposes: comms

External: N2YO · Heavens-Above · Gunter

§ Orbital elements

Epoch: 2026-09-21T21:30:05.808384Z

Period
93.85 min
Inclination
53.1595°
Eccentricity
0.0001153
Mean motion
15.34367916 rev/d
Perigee alt
462.0 km
Apogee alt
463.6 km
Semi-major
6,840.9 km
B*
1.9000e-4
RAAN
111.2545°
Arg perigee
114.5001°
Mean anomaly
245.6122°
Rev number
11,806

§ Raw data

STARLINK-321611 60593U 24150L   26264.89590056  .00006042  00000+0  19000-3 0  99912 60593  53.1595 111.2545 0001153 114.5001 245.6122 15.34367916118067

JSON: /api/v1/satellites/60593 · /tle

For live sub-satellite position, see the globe view (requires WebGL).

§ Visibility from observer

Set your observer location to see the next 7 days of passes ≥ 10°. The values pass through the URL so the page stays shareable.

No JS? Fill the form by hand. The geolocation button needs JavaScript.